SCP
0 0 0 0 0 0 0 0 0 0 0 0 0 0 0 0 0 0 0 0 0 0 0 0 0 0 0 0 0 0 0 0 0 0 0 0 -0 0 0 0 0 0 0 0
0 0 0 0 0 0 0 0 0 0 0 0 0 0 0 0 0 0 0 0 0 0 0 0 0 0 0 0 0 0 0 0 0 0 0 -0 -0 -0 0 0 0 0 0 0
0 0 0 0 0 0 0 0 0 0 0 0 0 0 0 0 0 0 0 0 0 0 0 0 0 0 0 0 0 0 0 0 0 0 0 0 -0 -0 -0 0 0 0 0 0
0 0 0 0 0 0 0 0 0 0 0 0 0 0 0 0 0 0 0 0 0 0 0 0 0 0 0 0 0 0 0 0 0 0 0 0 -0 -0 -0 0 0 0 0 0
0 0 0 0 0 0 0 0 0 0 0 0 0 0 0 0 0 0 0 0 0 0 0 0 0 0 0 0 0 0 0 0 0 0 0 0 0 -0 -0 0 0 0 0 0
0 0 0 0 0 0 0 0 0 0 0 0 0 0 0 0 0 0 0 0 0 0 0 0 0 0 0 0 0 0 0 0 0 0 0 0 0 0 -0 0 0 0 0 0
0 0 0 0 0 0 0 0 0 0 0 0 0 0 0 0 0 0 0 0 0 0 0 0 0 0 0 0 0 0 0 0 0 0 0 0 0 -0 0 0 0 0 0 0
0 0 0 0 0 0 0 0 0 0 0 0 0 0 0 0 0 0 0 0 0 0 0 0 0 0 0 0 0 0 0 0 0 0 0 0 0 -0 0 0 0 0 0 0
0 0 0 0 0 0 0 0 0 0 0 0 0 0 0 0 0 0 0 0 0 0 0 0 0 0 -0 0 0 0 0 0 0 0 0 0 -0 -0 0 0 0 0 0 0
0 0 0 0 0 0 0 0 0 0 0 0 0 0 0 0 0 0 0 0 0 0 0 0 0 0 0 0 0 0 0 0 0 0 0 0 -0 0 0 0 0 0 0 0
0 0 0 0 0 0 0 0 0 0 0 0 0 0 0 0 0 0 0 0 0 0 0 0 0 0 0 0 0 0 0 0 0 0 0 0 -0 0 0 0 0 0 0 0
0 0 0 0 0 0 0 0 0 0 0 0 0 0 0 0 0 0 0 0 0 0 0 0 0 0 0 0 0 0 0 0 0 0 0 0 -0 0 0 0 0 0 0 0
0 0 0 0 0 0 0 0 0 0 0 0 0 0 0 0 0 0 0 0 0 0 0 0 0 0 0 0 0 0 0 0 0 0 0 0 -0 0 0 0 0 0 0 0
0 0 0 0 0 0 0 0 0 0 0 0 0 0 0 0 0 0 0 0 0 0 0 0 0 0 0 0 0 0 0 0 0 0 0 0 0 0 0 0 0 0 0 0
0 0 0 0 0 0 0 0 0 0 0 0 0 0 0 0 0 0 0 0 0 0 0 0 0 0 -0 0 0 0 0 0 0 0 0 0 0 0 0 0 0 0 0 0
0 0 0 0 0 0 0 0 0 0 0 0 0 0 0 0 0 0 0 0 0 0 0 0 0 0 -0 -0 -0 0 0 0 0 0 0 0 0 0 0 0 0 0 0 0
0 0 0 0 0 0 0 0 0 0 0 0 0 0 0 0 0 0 0 0 0 0 0 0 0 -0 -0 -0 -0 0 0 0 0 0 0 0 0 0 0 0 0 0 0 0
0 0 0 0 0 0 0 0 0 0 0 0 0 0 0 0 0 0 0 0 0 0 0 0 -0 -0 -0 -0 -0 0 0 0 0 0 0 0 0 0 0 0 0 0 0 0
0 0 0 0 0 0 0 0 0 0 0 0 0 0 0 0 0 0 -0 0 0 0 0 -0 -0 -0 -0 -0 -0 0 0 0 0 0 0 0 0 0 0 0 0 0 0 0
0 0 0 0 0 0 0 0 0 0 0 0 0 0 0 0 0 0 -0 0 0 0 0 -0 -0 -0 -0 -0 -0 0 0 0 0 0 0 0 0 0 0 0 0 0 0 0
0 0 0 0 0 0 0 0 0 0 0 0 0 0 0 0 0 0 0 0 0 -0 0 -0 0 0 0 -0 0 0 0 0 0 0 0 0 0 0 0 0 0 0 0 0
0 0 0 0 0 0 0 0 0 0 0 0 0 0 0 0 0 0 -0 0 0 -0 0 0 0 -0 -0 -0 0 0 -0 0 0 0 0 0 0 0 0 0 0 0 0 0
0 0 0 0 0 0 0 0 0 0 0 0 0 0 0 -0 -0 0 0 0 0 0 0 0 -0 -0 -0 0 0 -0 -0 0 0 0 0 0 0 0 0 0 0 0 0 0
0 0 0 0 0 0 0 0 0 0 0 0 0 0 -0 -0 -0 -0 0 0 -0 -0 0 -0 -0 -0 -0 0 0 0 -0 0 0 0 0 0 0 0 0 0 0 0 0 0
0 0 0 0 0 0 0 0 0 0 0 0 0 -0 -0 -0 -0 0 0 0 -0 -0 -0 -0 -0 -0 0 -0 -0 0 0 0 0 0 0 0 0 0 0 0 0 0 0 0
0 0 0 0 0 0 0 0 0 0 0 0 0 0 0 0 -0 0 0 -0 0 -0 0 0 -0 -0 -0 -0 -0 -0 0 0 0 0 0 0 0 0 0 0 0 0 0 0
0 0 0 0 0 0 0 0 0 0 0 0 -0 -0 0 0 -0 -0 -0 0 0 -0 -0 -0 -0 -0 -0 -0 -0 0 0 0 0 0 0 0 0 0 0 0 0 0 0 0
Wind_Speed_500mb
22 20 20 32 33 27 28 29 19 25 19 4 4 3 9 21 36 42 39 27 42 54 65 76 81 76 76 76 77 71 56 61 65 59 56 58 59 63 51 40 35 37 26 26
15 11 9 25 24 28 21 17 21 24 10 2 10 18 27 38 46 29 44 50 62 75 81 77 77 79 83 81 80 64 61 67 65 55 55 60 59 65 53 41 34 31 34 31
11 15 23 10 7 5 8 4 7 5 6 13 13 23 29 49 26 39 49 57 63 64 71 82 83 83 80 76 68 69 68 67 57 51 57 61 56 64 53 39 32 31 29 29
8 13 6 2 5 3 6 11 12 11 12 17 22 34 48 27 37 54 70 69 67 70 73 80 76 74 73 69 70 66 67 58 47 53 59 60 55 62 49 35 25 23 22 26
5 4 16 5 6 6 8 2 10 8 17 22 37 40 26 28 55 69 67 70 68 68 70 73 71 68 68 70 69 64 56 49 51 54 58 58 57 59 43 31 21 19 20 22
2 7 9 4 2 10 3 7 11 17 16 24 39 16 17 59 75 75 76 76 76 74 74 71 68 68 70 68 64 61 56 56 52 53 54 50 57 52 36 26 18 14 12 14
15 8 12 2 6 6 1 2 14 21 27 29 11 26 59 66 68 66 67 69 67 69 69 68 68 68 68 66 65 64 54 52 54 49 50 46 54 41 27 20 13 10 12 14
6 7 14 3 1 3 1 5 14 25 31 36 44 56 59 63 67 71 71 74 71 72 71 71 68 65 67 66 61 55 50 53 51 46 44 42 46 31 20 15 11 10 13 18
13 7 5 5 4 10 2 12 21 31 38 41 49 55 62 67 67 70 71 70 71 71 78 72 67 64 67 67 62 56 52 51 47 42 39 37 37 24 16 14 14 15 20 24
1 2 5 19 18 6 9 19 27 32 38 42 48 56 63 65 72 73 73 72 71 74 70 71 68 65 60 58 55 49 48 43 39 39 34 34 29 19 15 17 19 22 24 26
6 5 18 14 6 12 20 24 32 37 39 43 45 55 61 68 71 71 71 69 69 65 69 68 67 63 57 53 48 43 40 36 35 37 27 31 24 15 14 17 19 22 25 30
7 8 2 4 14 22 23 32 34 39 48 46 45 54 60 68 70 69 71 67 65 65 67 66 63 57 53 48 39 35 37 36 34 36 24 29 23 13 13 14 17 21 21 24
5 5 9 9 12 16 30 34 36 37 38 44 50 54 58 65 70 66 68 65 62 64 64 63 56 55 52 49 40 37 35 35 34 31 25 28 21 13 11 16 17 20 24 25
5 5 7 6 14 27 33 35 36 37 38 44 49 54 58 64 68 69 66 64 62 59 56 58 55 54 47 39 37 39 34 31 32 26 23 25 18 13 14 24 32 35 28 35
5 9 7 12 20 26 31 37 42 44 47 51 53 54 57 66 69 68 67 62 59 56 53 54 56 54 48 40 39 39 35 30 25 16 21 21 14 15 19 26 36 42 44 41
9 9 8 18 25 29 36 39 43 47 49 52 54 53 56 60 63 65 65 59 60 61 58 55 55 53 48 41 38 37 31 26 20 19 22 17 12 18 24 30 41 51 53 56
11 10 21 25 30 34 37 37 38 43 47 49 50 51 55 59 62 65 65 58 53 53 51 54 55 48 45 38 34 37 34 28 16 18 19 14 13 20 26 33 45 56 58 60
11 14 19 25 31 36 37 36 37 39 42 45 46 49 52 55 60 64 65 61 58 55 51 52 48 45 38 32 31 34 32 25 17 17 15 12 14 20 26 36 49 58 61 69
14 17 20 24 28 32 33 35 37 37 38 41 45 48 48 49 53 58 61 61 65 67 63 60 49 43 38 28 26 27 28 23 19 16 12 11 16 20 28 39 51 58 70 72
17 21 23 24 25 30 32 32 34 36 36 39 42 46 49 48 50 54 58 61 63 63 65 60 49 45 40 32 26 27 26 24 18 10 9 13 18 23 30 40 51 65 73 66
21 23 25 25 24 26 28 32 34 35 36 36 40 44 47 47 49 53 59 66 68 68 62 55 49 49 44 38 33 27 24 19 11 4 9 15 21 26 35 46 57 68 67 62
23 23 22 23 24 25 26 29 31 32 32 34 36 38 42 46 50 50 51 57 64 68 62 56 57 47 41 35 29 24 19 12 6 0 7 15 23 31 43 52 58 62 58 56
20 20 20 22 24 26 27 28 27 28 28 31 35 39 40 42 45 55 61 57 57 62 59 57 53 42 35 28 25 21 17 11 10 6 6 14 23 32 44 48 50 54 50 48
15 16 18 19 23 25 25 25 25 24 24 26 28 33 39 41 37 41 43 47 50 54 57 57 53 42 33 28 25 22 19 14 13 11 6 12 21 30 38 40 41 48 43 42
14 16 20 22 25 25 26 27 24 22 19 21 24 28 30 34 39 42 42 43 47 51 54 57 59 52 43 37 32 28 26 21 16 11 14 17 21 27 31 33 40 41 38 35
13 16 20 25 26 26 28 27 24 24 23 23 23 28 29 29 30 33 36 39 42 47 52 55 59 60 60 51 41 36 32 28 19 18 18 23 27 30 33 37 39 34 33 30
13 15 20 19 19 21 26 25 22 19 23 25 24 26 28 29 30 31 34 37 40 45 48 51 55 58 59 62 61 55 48 41 38 30 30 31 31 33 33 34 32 33 32 30
Wind_Direction_500mb
274 297 286 281 284 278 258 259 238 277 275 153 188 14 3 348 347 342 346 348 335 330 326 322 322 323 322 321 321 325 321 318 319 321 323 324 325 328 313 301 276 253 255 249
284 248 311 286 275 271 263 261 261 276 253 134 38 3 351 344 345 1 342 336 330 325 323 323 321 320 319 318 319 321 316 312 318 319 321 321 322 325 315 296 286 253 246 239
274 337 310 280 203 312 304 12 330 282 68 31 16 358 339 334 343 341 337 334 328 325 321 317 316 317 317 319 318 315 313 313 317 320 317 321 321 325 317 296 283 254 242 237
282 337 293 142 47 354 328 41 19 45 25 16 355 330 321 339 340 337 331 328 323 322 318 318 319 319 318 317 315 315 313 317 319 318 316 321 322 325 316 298 276 261 246 247
265 268 287 139 14 42 31 25 30 1 0 353 340 328 324 329 323 327 326 321 320 321 320 318 317 319 317 316 317 318 320 318 316 316 316 318 322 323 314 300 280 272 252 245
178 253 267 111 115 353 353 260 27 10 3 351 345 330 310 321 324 324 325 325 324 324 320 321 322 320 319 318 319 319 318 315 312 312 314 317 322 320 308 297 279 256 236 237
232 261 280 148 313 349 28 253 8 351 340 338 318 291 304 317 319 321 321 322 325 324 319 320 321 323 318 315 311 313 312 314 312 311 314 314 323 316 298 293 274 239 221 199
188 240 264 340 68 184 132 296 339 332 332 326 320 318 319 320 321 327 327 327 328 325 326 326 327 325 321 319 321 317 314 314 313 311 315 315 322 308 290 280 252 213 182 174
195 238 120 50 141 135 330 335 336 329 327 328 325 324 325 324 326 325 327 327 328 327 325 327 329 328 319 320 318 314 309 309 312 312 316 319 321 296 278 254 226 193 171 157
12 157 118 131 127 100 338 331 329 328 328 331 329 330 329 325 327 329 329 328 330 324 326 330 336 333 327 324 321 310 307 307 313 316 318 326 319 285 258 238 213 186 173 163
252 114 116 110 54 331 324 330 332 331 333 334 334 330 329 329 332 331 329 329 328 331 330 333 337 335 335 331 324 314 310 309 315 317 315 328 319 284 250 231 223 206 186 170
238 149 204 218 316 311 320 333 335 333 331 334 333 330 333 335 336 335 331 332 334 332 334 335 335 337 340 337 329 321 314 315 319 318 320 327 315 285 241 220 212 202 196 185
182 247 290 290 295 308 324 331 333 328 331 329 332 334 336 336 338 332 338 336 333 333 334 336 334 335 337 341 329 321 315 314 313 317 318 321 305 272 232 189 180 186 182 177
304 324 171 334 324 324 323 327 330 332 336 337 335 336 337 339 340 342 342 338 335 333 335 337 337 336 340 334 331 319 307 303 307 307 310 313 293 248 212 197 172 166 171 168
304 349 329 316 317 323 327 331 334 339 340 339 338 338 341 341 342 343 344 342 338 338 337 336 336 340 343 340 331 325 319 314 314 301 309 303 274 223 204 200 181 166 161 165
307 320 312 328 332 334 337 338 337 336 337 336 336 340 342 342 342 346 347 347 344 341 341 338 337 342 347 349 339 332 322 311 306 302 309 295 255 211 200 199 186 172 168 164
333 320 329 335 337 338 337 336 335 333 332 334 336 340 342 344 345 348 350 350 345 346 343 343 340 341 349 350 342 333 326 322 302 297 304 284 237 207 200 197 187 179 175 168
336 327 326 324 329 331 333 336 336 336 335 337 340 343 345 348 348 349 351 352 351 351 352 348 344 341 341 352 349 344 335 324 307 302 291 262 219 203 200 196 189 182 174 167
326 327 327 327 328 327 330 333 338 341 340 342 344 347 350 350 350 351 354 359 358 354 353 351 347 343 340 340 337 336 331 321 309 299 271 229 205 196 197 193 188 181 172 172
324 324 325 327 326 326 330 333 336 341 344 344 347 350 354 355 354 356 358 4 2 357 348 348 346 351 349 343 333 327 326 320 309 285 243 210 195 188 191 189 185 179 178 176
322 322 322 323 327 331 330 332 335 340 344 346 349 354 356 357 0 2 1 3 2 1 353 351 358 355 353 350 345 336 330 331 316 267 216 199 188 185 187 185 181 181 180 175
315 317 318 321 328 335 334 335 335 337 340 346 350 354 358 360 2 9 12 2 2 2 356 1 -0 355 352 350 347 348 348 357 353 143 197 191 185 183 184 183 182 184 179 175
315 319 324 326 330 338 341 335 335 339 343 346 350 353 360 3 2 4 4 9 8 6 4 11 1 358 357 358 5 9 10 25 47 70 169 185 182 183 185 184 184 182 177 175
321 324 330 331 335 337 333 344 343 347 345 345 349 352 352 357 9 10 8 9 13 13 15 19 16 12 12 21 24 28 34 46 68 76 113 166 176 181 185 183 179 176 174 172
330 334 333 337 341 342 341 343 343 346 351 354 355 358 0 3 3 8 7 12 18 21 23 27 30 28 33 37 40 46 53 55 71 100 139 158 166 174 179 175 169 170 166 165
340 335 337 342 342 344 343 341 348 350 355 1 4 5 5 8 10 13 15 17 24 29 31 33 37 39 44 45 49 55 64 70 80 106 133 151 159 163 165 162 158 161 161 155
342 337 336 344 344 349 351 348 349 358 1 3 5 5 8 14 18 18 23 24 29 34 35 38 41 45 49 55 57 61 66 75 83 98 118 130 137 140 146 152 150 150 151 150
Wind_Speed_850mb
22 20 20 32 33 27 28 29 19 25 19 4 4 3 9 21 36 42 39 27 42 54 65 76 81 76 76 76 77 71 56 61 65 59 56 58 59 63 51 40 35 37 26 26
15 11 9 25 24 28 21 17 21 24 10 2 10 18 27 38 46 29 44 50 62 75 81 77 77 79 83 81 80 64 61 67 65 55 55 60 59 65 53 41 34 31 34 31
11 15 23 10 7 5 8 4 7 5 6 13 13 23 29 49 26 39 49 57 63 64 71 82 83 83 80 76 68 69 68 67 57 51 57 61 56 64 53 39 32 31 29 29
8 13 6 2 5 3 6 11 12 11 12 17 22 34 48 27 37 54 70 69 67 70 73 80 76 74 73 69 70 66 67 58 47 53 59 60 55 62 49 35 25 23 22 26
5 4 16 5 6 6 8 2 10 8 17 22 37 40 26 28 55 69 67 70 68 68 70 73 71 68 68 70 69 64 56 49 51 54 58 58 57 59 43 31 21 19 20 22
2 7 9 4 2 10 3 7 11 17 16 24 39 16 17 59 75 75 76 76 76 74 74 71 68 68 70 68 64 61 56 56 52 53 54 50 57 52 36 26 18 14 12 14
15 8 12 2 6 6 1 2 14 21 27 29 11 26 59 66 68 66 67 69 67 69 69 68 68 68 68 66 65 64 54 52 54 49 50 46 54 41 27 20 13 10 12 14
6 7 14 3 1 3 1 5 14 25 31 36 44 56 59 63 67 71 71 74 71 72 71 71 68 65 67 66 61 55 50 53 51 46 44 42 46 31 20 15 11 10 13 18
13 7 5 5 4 10 2 12 21 31 38 41 49 55 62 67 67 70 71 70 71 71 78 72 67 64 67 67 62 56 52 51 47 42 39 37 37 24 16 14 14 15 20 24
1 2 5 19 18 6 9 19 27 32 38 42 48 56 63 65 72 73 73 72 71 74 70 71 68 65 60 58 55 49 48 43 39 39 34 34 29 19 15 17 19 22 24 26
6 5 18 14 6 12 20 24 32 37 39 43 45 55 61 68 71 71 71 69 69 65 69 68 67 63 57 53 48 43 40 36 35 37 27 31 24 15 14 17 19 22 25 30
7 8 2 4 14 22 23 32 34 39 48 46 45 54 60 68 70 69 71 67 65 65 67 66 63 57 53 48 39 35 37 36 34 36 24 29 23 13 13 14 17 21 21 24
5 5 9 9 12 16 30 34 36 37 38 44 50 54 58 65 70 66 68 65 62 64 64 63 56 55 52 49 40 37 35 35 34 31 25 28 21 13 11 16 17 20 24 25
5 5 7 6 14 27 33 35 36 37 38 44 49 54 58 64 68 69 66 64 62 59 56 58 55 54 47 39 37 39 34 31 32 26 23 25 18 13 14 24 32 35 28 35
5 9 7 12 20 26 31 37 42 44 47 51 53 54 57 66 69 68 67 62 59 56 53 54 56 54 48 40 39 39 35 30 25 16 21 21 14 15 19 26 36 42 44 41
9 9 8 18 25 29 36 39 43 47 49 52 54 53 56 60 63 65 65 59 60 61 58 55 55 53 48 41 38 37 31 26 20 19 22 17 12 18 24 30 41 51 53 56
11 10 21 25 30 34 37 37 38 43 47 49 50 51 55 59 62 65 65 58 53 53 51 54 55 48 45 38 34 37 34 28 16 18 19 14 13 20 26 33 45 56 58 60
11 14 19 25 31 36 37 36 37 39 42 45 46 49 52 55 60 64 65 61 58 55 51 52 48 45 38 32 31 34 32 25 17 17 15 12 14 20 26 36 49 58 61 69
14 17 20 24 28 32 33 35 37 37 38 41 45 48 48 49 53 58 61 61 65 67 63 60 49 43 38 28 26 27 28 23 19 16 12 11 16 20 28 39 51 58 70 72
17 21 23 24 25 30 32 32 34 36 36 39 42 46 49 48 50 54 58 61 63 63 65 60 49 45 40 32 26 27 26 24 18 10 9 13 18 23 30 40 51 65 73 66
21 23 25 25 24 26 28 32 34 35 36 36 40 44 47 47 49 53 59 66 68 68 62 55 49 49 44 38 33 27 24 19 11 4 9 15 21 26 35 46 57 68 67 62
23 23 22 23 24 25 26 29 31 32 32 34 36 38 42 46 50 50 51 57 64 68 62 56 57 47 41 35 29 24 19 12 6 0 7 15 23 31 43 52 58 62 58 56
20 20 20 22 24 26 27 28 27 28 28 31 35 39 40 42 45 55 61 57 57 62 59 57 53 42 35 28 25 21 17 11 10 6 6 14 23 32 44 48 50 54 50 48
15 16 18 19 23 25 25 25 25 24 24 26 28 33 39 41 37 41 43 47 50 54 57 57 53 42 33 28 25 22 19 14 13 11 6 12 21 30 38 40 41 48 43 42
14 16 20 22 25 25 26 27 24 22 19 21 24 28 30 34 39 42 42 43 47 51 54 57 59 52 43 37 32 28 26 21 16 11 14 17 21 27 31 33 40 41 38 35
13 16 20 25 26 26 28 27 24 24 23 23 23 28 29 29 30 33 36 39 42 47 52 55 59 60 60 51 41 36 32 28 19 18 18 23 27 30 33 37 39 34 33 30
13 15 20 19 19 21 26 25 22 19 23 25 24 26 28 29 30 31 34 37 40 45 48 51 55 58 59 62 61 55 48 41 38 30 30 31 31 33 33 34 32 33 32 30
Wind_Direction_850mb
274 297 286 281 284 278 258 259 238 277 275 153 188 14 3 348 347 342 346 348 335 330 326 322 322 323 322 321 321 325 321 318 319 321 323 324 325 328 313 301 276 253 255 249
284 248 311 286 275 271 263 261 261 276 253 134 38 3 351 344 345 1 342 336 330 325 323 323 321 320 319 318 319 321 316 312 318 319 321 321 322 325 315 296 286 253 246 239
274 337 310 280 203 312 304 12 330 282 68 31 16 358 339 334 343 341 337 334 328 325 321 317 316 317 317 319 318 315 313 313 317 320 317 321 321 325 317 296 283 254 242 237
282 337 293 142 47 354 328 41 19 45 25 16 355 330 321 339 340 337 331 328 323 322 318 318 319 319 318 317 315 315 313 317 319 318 316 321 322 325 316 298 276 261 246 247
265 268 287 139 14 42 31 25 30 1 0 353 340 328 324 329 323 327 326 321 320 321 320 318 317 319 317 316 317 318 320 318 316 316 316 318 322 323 314 300 280 272 252 245
178 253 267 111 115 353 353 260 27 10 3 351 345 330 310 321 324 324 325 325 324 324 320 321 322 320 319 318 319 319 318 315 312 312 314 317 322 320 308 297 279 256 236 237
232 261 280 148 313 349 28 253 8 351 340 338 318 291 304 317 319 321 321 322 325 324 319 320 321 323 318 315 311 313 312 314 312 311 314 314 323 316 298 293 274 239 221 199
188 240 264 340 68 184 132 296 339 332 332 326 320 318 319 320 321 327 327 327 328 325 326 326 327 325 321 319 321 317 314 314 313 311 315 315 322 308 290 280 252 213 182 174
195 238 120 50 141 135 330 335 336 329 327 328 325 324 325 324 326 325 327 327 328 327 325 327 329 328 319 320 318 314 309 309 312 312 316 319 321 296 278 254 226 193 171 157
12 157 118 131 127 100 338 331 329 328 328 331 329 330 329 325 327 329 329 328 330 324 326 330 336 333 327 324 321 310 307 307 313 316 318 326 319 285 258 238 213 186 173 163
252 114 116 110 54 331 324 330 332 331 333 334 334 330 329 329 332 331 329 329 328 331 330 333 337 335 335 331 324 314 310 309 315 317 315 328 319 284 250 231 223 206 186 170
238 149 204 218 316 311 320 333 335 333 331 334 333 330 333 335 336 335 331 332 334 332 334 335 335 337 340 337 329 321 314 315 319 318 320 327 315 285 241 220 212 202 196 185
182 247 290 290 295 308 324 331 333 328 331 329 332 334 336 336 338 332 338 336 333 333 334 336 334 335 337 341 329 321 315 314 313 317 318 321 305 272 232 189 180 186 182 177
304 324 171 334 324 324 323 327 330 332 336 337 335 336 337 339 340 342 342 338 335 333 335 337 337 336 340 334 331 319 307 303 307 307 310 313 293 248 212 197 172 166 171 168
304 349 329 316 317 323 327 331 334 339 340 339 338 338 341 341 342 343 344 342 338 338 337 336 336 340 343 340 331 325 319 314 314 301 309 303 274 223 204 200 181 166 161 165
307 320 312 328 332 334 337 338 337 336 337 336 336 340 342 342 342 346 347 347 344 341 341 338 337 342 347 349 339 332 322 311 306 302 309 295 255 211 200 199 186 172 168 164
333 320 329 335 337 338 337 336 335 333 332 334 336 340 342 344 345 348 350 350 345 346 343 343 340 341 349 350 342 333 326 322 302 297 304 284 237 207 200 197 187 179 175 168
336 327 326 324 329 331 333 336 336 336 335 337 340 343 345 348 348 349 351 352 351 351 352 348 344 341 341 352 349 344 335 324 307 302 291 262 219 203 200 196 189 182 174 167
326 327 327 327 328 327 330 333 338 341 340 342 344 347 350 350 350 351 354 359 358 354 353 351 347 343 340 340 337 336 331 321 309 299 271 229 205 196 197 193 188 181 172 172
324 324 325 327 326 326 330 333 336 341 344 344 347 350 354 355 354 356 358 4 2 357 348 348 346 351 349 343 333 327 326 320 309 285 243 210 195 188 191 189 185 179 178 176
322 322 322 323 327 331 330 332 335 340 344 346 349 354 356 357 0 2 1 3 2 1 353 351 358 355 353 350 345 336 330 331 316 267 216 199 188 185 187 185 181 181 180 175
315 317 318 321 328 335 334 335 335 337 340 346 350 354 358 360 2 9 12 2 2 2 356 1 -0 355 352 350 347 348 348 357 353 143 197 191 185 183 184 183 182 184 179 175
315 319 324 326 330 338 341 335 335 339 343 346 350 353 360 3 2 4 4 9 8 6 4 11 1 358 357 358 5 9 10 25 47 70 169 185 182 183 185 184 184 182 177 175
321 324 330 331 335 337 333 344 343 347 345 345 349 352 352 357 9 10 8 9 13 13 15 19 16 12 12 21 24 28 34 46 68 76 113 166 176 181 185 183 179 176 174 172
330 334 333 337 341 342 341 343 343 346 351 354 355 358 0 3 3 8 7 12 18 21 23 27 30 28 33 37 40 46 53 55 71 100 139 158 166 174 179 175 169 170 166 165
340 335 337 342 342 344 343 341 348 350 355 1 4 5 5 8 10 13 15 17 24 29 31 33 37 39 44 45 49 55 64 70 80 106 133 151 159 163 165 162 158 161 161 155
342 337 336 344 344 349 351 348 349 358 1 3 5 5 8 14 18 18 23 24 29 34 35 38 41 45 49 55 57 61 66 75 83 98 118 130 137 140 146 152 150 150 151 150